CZ-6A DEB, 54263

Orbit data source: Space-Track

CZ-6A DEB, 54263 is space debris in SSO originally from a launch on Fri, 11 Nov 2022 UTC launched from the Taiyaun Space Center, China (TSC). Debris objects in space refer to the collection of defunct objects orbiting the Earth. Examples of debris include non-operational satellites, rocket bodies, and fragments generated from explosions, collisions, or faulty payload assembly.

Loading next visibility...
Identifier
54263, 2022-151E
Orbit
SSO
Country
Flag of CNCN / PRC
Related business
Manufacturer
SAST
Mission
Spacecraft
Bus & Motor
Unknown
Mass
Unknown
Launch date (UTC)
2022-11-11 (4 years ago)
Launch vehicle
Unknown
Launch site
Taiyaun Space Center, China (TSC)
Object type
Payload
Rocket body
Debris
Shape & HBR
Unknown shape, 0.1 m
Radar Cross Section
Medium (>0.1 m² and <1 m²)

Expand to show TLE details & history
Last TLE update: 18 hours ago

TLE from 18 hours ago
0 CZ-6A DEB
1 54263U 22151E   26235.72514343 -.00000077  00000-0 -41232-4 0  9990
2 54263  99.1413 156.7807 0304039 125.3872 237.6078 13.56768774187081
Epoch: 2026-08-23T17:24Z
TLE epoch observation values (Epoch: 2026-08-23T17:24:12.392Z)
Latitude
0.00005°
Longitude
-76.28802°
Altitude
1,176.023 km
Speed
7.204 km/s
True Right ascension
10h 27m 07s
True Declination
0° 00' 00"
Sunlit
Object was in daylight at epoch
Visualization orbit readout
Latitude
Unknown
Longitude
Unknown
Altitude
Unknown
Speed
Unknown
Apparent Right ascension
Unknown
Apparent Declination
Unknown
Sunlit
N/A
Visualization observer readout
Local Sidereal Time
02:49:54
Azimuth
Unknown
Elevation
Unknown
Doppler factor
Unknown
Orbital elements
Apogee altitude
1,270.403 km
Perigee altitude
819.035 km
Semi-major axis
7,422.856 km
Eccentricity
0.0304
Inclination
99.1413°
RAAN
156.7807°
Arg. of periapsis
125.3872°
True anomaly
234.72584°
Mean anomaly
237.6078°
Eccentric anomaly
236.16087°
Mean motion
3.3938 °/min
Orbital period
106.08 mins
BSTAR
-0.000041232
Loading maneuver chart data...
Computing Atmospheric mass density...
Loading historical data...
Loading historical data...
Loading historical data...
Loading historical data...
Loading historical data...
Loading historical data...
Loading historical data...

Documentation

Showing up to 5 results
|